Terminal Aerodrome Forecast
Issued by NWS

Home | Current Version | Previous Version | Graphics & Text | Print | Product List | Glossary On
Versions: 1 2 3 4 5 6 7 8 9 10 11 12 13
533
FTUS43 KFGF 260211 AAA
TAFBJI
TAF AMD
KBJI 260211Z 2602/2624 06015KT P6SM OVC007
      TEMPO 2602/2604 4SM -RA BR OVC014
     FM261500 08014KT P6SM BKN025
     FM261700 08011KT P6SM BKN035
     FM262200 09011KT P6SM SCT100=

USA.gov is the U.S. government's official web portal to all federal, state and local government web resources and services.